Location: Follega
(52.8850°N, 5.7362°E)
Time: 08:17:50
(UTC+00:00)

ERS-1 Rocket - Pass Details

Date: 06 October 2020
Orbit: 753 x 757 km, 98.5° (Epoch: 30 October)

Event Time Altitude Azimuth Distance (km) Brightness Sun altitude
Exits shadow 22:18:09 15° 315° (NW) 1,958 5.6 -40.7°
Drops below altitude 10° 22:19:17 10° 324° (NW) 2,299 6.1 -40.8°
Sets 22:21:59 0° 337° (NNW) 3,230 7.1 -41.0°
